[[{"header":{"parameterUnit":"m.s-1","parameterCategory":2,"la1":30.2991,"la2":30.254,"lo1":-89.0895,"lo2":-89.0444,"dy":0.0017,"dx":0.0017,"nx":28,"ny":28,"refTime":"2023-07-23T21:00:00:Z","depth":"0","parameterNumber":2,"parameterNumberName":"U-component_of_CURRENTS"},"data":[0,0,0,0,0,0,0,0,0,0,0,0,0,0,0,0,0,0,0,0,0,0,0,0,0,0,0,0,0,0,0,0,0,0,0,0,0,0,0,0,0,0,0,0,0,0,0,0,0,0,0,0,0,0,0,0,0,0,0.2224,0.2225,0,0.2383,0.2385,0.2387,0.2469,0.2469,0.2469,0.2469,0.2644,0.2648,0.2653,0,0,0,0,0,0,0,0,0,0,0,0,0,0.204,0.2043,0.2224,0.2225,0.2227,0.2382,0.2385,0.2387,0.247,0.2469,0.2469,0.2469,0.2642,0.2648,0.2654,0,0,0,0,0,0,0,0,0,0,0,0,0,0.2154,0.2044,0.2223,0.2285,0.2292,0.2382,0.2385,0.2388,0.247,0.2469,0.2469,0.2469,0.264,0.2647,0.2654,0.2703,0,0,0.2676,0.2679,0,0,0,0,0,0,0,0,0.2147,0.2161,0.2274,0.2281,0.2288,0.2403,0.2384,0.2493,0.247,0.2405,0.2469,0.2469,0.2563,0.2577,0.2611,0.2711,0.2719,0.2677,0.2681,0.2684,0.2686,0,0,0,0,0,0,0,0.2139,0.2155,0.229,0.2276,0.2285,0.2321,0.2336,0.2405,0.2486,0.2411,0.2416,0.2429,0.2567,0.2604,0.2616,0.2722,0.2677,0.2683,0.2688,0.269,0.2777,0.2775,0,0,0,0,0,0,0.2112,0.2147,0.2284,0.2294,0.2213,0.2324,0.2342,0.2369,0.2485,0.2502,0.2429,0.2433,0.2592,0.2607,0.2622,0.2645,0.2684,0.2691,0.2695,0.2779,0.2777,0.2775,0,0,0,0,0,0,0.2108,0.2123,0.2278,0.2221,0.2243,0.2326,0.2357,0.2372,0.2395,0.2499,0.2516,0.2434,0.2592,0.2612,0.2655,0.2653,0.2694,0.2701,0.2781,0.2778,0.2776,0.2717,0,0,0,0,0,0,0.2102,0.2121,0.2136,0.2219,0.2245,0.2323,0.2358,0.2375,0.2403,0.2409,0.2509,0.2526,0.2593,0.2644,0.2662,0.2664,0.2706,0.2784,0.278,0.2777,0.2721,0.2712,0.2704,0,0,0,0,0,0.2095,0.2124,0.2136,0.2153,0.2262,0.2323,0.234,0.24,0.2403,0.2418,0.2465,0.2522,0.2632,0.2649,0.2671,0.2675,0.2786,0.2781,0.2777,0.2725,0.2714,0.2705,0,0,0,0,0,0,0.2071,0.2138,0.2152,0.2205,0.2249,0.2336,0.2358,0.2384,0.2436,0.2435,0.2515,0.2536,0.2574,0.2616,0.2632,0.2679,0.2712,0.2711,0.2664,0.2655,0.2646,0.2628,0.2712,0,0,0,0,0,0.2064,0.2091,0.2158,0.2194,0.2211,0.2273,0.2304,0.234,0.2394,0.2416,0.2472,0.2522,0.2576,0.2606,0.2662,0.2697,0.2721,0.2702,0.2694,0.2686,0.268,0.2702,0.2696,0.276,0.276,0.276,0,0,0.2059,0.2102,0.2115,0.2187,0.2225,0.2252,0.2292,0.2332,0.235,0.2427,0.2456,0.2505,0.2576,0.2616,0.2635,0.2651,0.2676,0.2681,0.2675,0.2672,0.2696,0.2691,0.2686,0.2757,0.2757,0.2758,0,0,0.2051,0.2099,0.2106,0.2141,0.2191,0.2235,0.2232,0.2296,0.232,0.2355,0.2405,0.2437,0.2518,0.2567,0.2604,0.2575,0.2633,0.2583,0.2536,0.2557,0.2552,0.2549,0.2561,0.2559,0.2577,0.2577,0.2576,0,0.2034,0.207,0.2118,0.2135,0.2159,0.2212,0.2223,0.2262,0.2326,0.2337,0.2349,0.2436,0.2498,0.2546,0.2532,0.2562,0.2574,0.2579,0.2549,0.2546,0.2543,0.2557,0.2556,0.2573,0.2574,0.2574,0.2574,0,0.2031,0.2056,0.2065,0.2097,0.213,0.2153,0.2203,0.2221,0.2243,0.2279,0.2312,0.2382,0.2432,0.2448,0.2492,0.25,0.2513,0.2541,0.2582,0.2534,0.255,0.255,0.2568,0.257,0.2571,0.2571,0,0,0.198,0.2047,0.2043,0.2053,0.2113,0.2138,0.2158,0.2198,0.2206,0.2244,0.2256,0.2325,0.2348,0.2386,0.2435,0.2446,0.2442,0.2475,0.2477,0.2499,0.2475,0.2476,0.2476,0.2465,0.2465,0.2465,0.249,0,0.195,0.1978,0.2018,0.2028,0.2044,0.2095,0.2113,0.2152,0.2189,0.2213,0.2261,0.2302,0.2331,0.2357,0.2368,0.2448,0.2439,0.2432,0.2507,0.2509,0.2527,0.2476,0.2484,0.2506,0.249,0.249,0.249,0,0.1915,0.1945,0.1959,0.2001,0.2008,0.2019,0.2057,0.2084,0.2134,0.2161,0.2194,0.2245,0.2291,0.2308,0.2382,0.2375,0.2402,0.2439,0.2442,0.2465,0.251,0.2552,0.2507,0.2474,0.2491,0.2491,0.2491,0,0.1854,0.1892,0.1905,0.1921,0.198,0.1979,0.2005,0.2055,0.2072,0.2129,0.2149,0.2211,0.2257,0.2296,0.2387,0.2382,0.2455,0.2471,0.2481,0.2482,0.2515,0.2518,0.246,0.2473,0.2473,0.2472,0.2472,0,0.1814,0.1811,0.1873,0.1879,0.1876,0.1931,0.1927,0.1968,0.2013,0.2032,0.2114,0.215,0.2252,0.2319,0.2371,0.2439,0.2448,0.2459,0.2485,0.2491,0.2492,0.2487,0.2454,0.2473,0.2473,0.2473,0.2473,0,0.174,0.1786,0.1791,0.184,0.1848,0.1841,0.1869,0.188,0.1936,0.1966,0.1984,0.2107,0.2211,0.2305,0.2403,0.2432,0.2431,0.2501,0.2498,0.2521,0.2484,0.2447,0.2223,0.2166,0.2508,0.2508,0.2508,0,0.1705,0.1709,0.1746,0.1749,0.1764,0.1766,0.1775,0.1826,0.1841,0.1942,0.1954,0.2073,0.2158,0.2315,0.242,0.2509,0.2414,0.2527,0.2509,0.2464,0.2443,0.2252,0.2207,0.2528,0.2528,0.2528,0.2528,0,0.1636,0.1651,0.167,0.1679,0.1681,0.1686,0.1699,0.1694,0.1767,0.1807,0.1891,0.1972,0.216,0.229,0.2423,0.2484,0.2412,0.253,0.2494,0.2445,0.2224,0.219,0.2522,0.253,0.253,0.253,0.253,0.253,0.1568,0.1569,0.1602,0.1605,0.1614,0.1615,0.1599,0.1627,0.1645,0.1709,0.1811,0.1927,0.2162,0.2375,0.2423,0.2522,0.239,0.2501,0.2458,0.2266,0.2192,0.251,0.2541,0.2541,0.2541,0.2541,0.2541,0,0.1494,0.1519,0.1529,0.154,0.1537,0.1559,0.1564,0.1554,0.1563,0.1655,0.1728,0.1947,0.2129,0.2311,0.2503,0.2477,0.2347,0.2424,0.2192,0.2155,0.2487,0.2477,0.2484,0.2484,0.2484,0.2484,0.2484,0.2484,0.1448,0.1454,0.148,0.1467,0.1475,0.1455,0.1448,0.145,0.15,0.1584,0.1682,0.1786,0.2014,0.2286,0.2396,0.2386,0.2204,0.2093,0.2016,0.2332,0.2336,0.234,0.2323,0.2298,0.2297,0.1634,0.163,0.1626]},{"header":{"parameterUnit":"m.s-1","parameterCategory":2,"la1":30.2991,"la2":30.254,"lo1":-89.0895,"lo2":-89.0444,"dy":0.0017,"dx":0.0017,"nx":28,"ny":28,"refTime":"2023-07-23T21:00:00:Z","depth":"0","parameterNumber":3,"parameterNumberName":"V-component_of_CURRENTS"},"data":[0,0,0,0,0,0,0,0,0,0,0,0,0,0,0,0,0,0,0,0,0,0,0,0,0,0,0,0,0,0,0,0,0,0,0,0,0,0,0,0,0,0,0,0,0,0,0,0,0,0,0,0,0,0,0,0,0,0,0.0928,0.0928,0,0.1019,0.1021,0.1022,0.1081,0.1081,0.108,0.108,0.1094,0.1094,0.1095,0,0,0,0,0,0,0,0,0,0,0,0,0,0.0923,0.0922,0.0928,0.0928,0.0929,0.1019,0.1021,0.1023,0.1081,0.1081,0.108,0.108,0.1094,0.1094,0.1095,0,0,0,0,0,0,0,0,0,0,0,0,0,0.0967,0.0922,0.0928,0.0964,0.0967,0.1018,0.1021,0.1023,0.1081,0.1081,0.108,0.108,0.1093,0.1094,0.1095,0.1109,0,0,0.1098,0.1098,0,0,0,0,0,0,0,0,0.0964,0.0968,0.0958,0.0961,0.0965,0.1032,0.1024,0.1046,0.1081,0.1045,0.108,0.108,0.1062,0.1065,0.1094,0.111,0.111,0.1098,0.1099,0.1099,0.1099,0,0,0,0,0,0,0,0.0961,0.0965,0.0971,0.0958,0.0963,0.1015,0.1021,0.103,0.1059,0.1048,0.1051,0.105,0.1064,0.1093,0.1095,0.1111,0.1098,0.1099,0.1099,0.11,0.1094,0.1094,0,0,0,0,0,0,0.093,0.0961,0.0968,0.0973,0.0956,0.1015,0.1021,0.1017,0.106,0.1065,0.1051,0.1053,0.1092,0.1094,0.1095,0.1082,0.1099,0.11,0.11,0.1095,0.1094,0.1093,0,0,0,0,0,0,0.0929,0.0929,0.0964,0.0964,0.0971,0.1014,0.1009,0.1019,0.1037,0.1062,0.1066,0.1056,0.1092,0.1094,0.1099,0.1084,0.11,0.1101,0.1096,0.1095,0.1094,0.1076,0,0,0,0,0,0,0.0929,0.0929,0.0929,0.0962,0.097,0.0986,0.1009,0.1021,0.1034,0.1038,0.1068,0.107,0.1092,0.1097,0.11,0.1085,0.1102,0.1097,0.1095,0.1094,0.1077,0.1074,0.1072,0,0,0,0,0,0.0928,0.0946,0.0929,0.093,0.0964,0.0985,0.0995,0.1029,0.1034,0.1044,0.1064,0.1068,0.109,0.1098,0.1101,0.1086,0.1097,0.1096,0.1094,0.1078,0.1075,0.1072,0,0,0,0,0,0,0.0981,0.0953,0.0936,0.0952,0.0952,0.0992,0.1023,0.1019,0.1048,0.1057,0.1069,0.1073,0.1067,0.1078,0.1086,0.1079,0.109,0.1089,0.1077,0.1074,0.1071,0.1103,0.1103,0,0,0,0,0,0.0976,0.0968,0.0951,0.0969,0.0966,0.0983,0.0999,0.1009,0.103,0.1044,0.1051,0.1063,0.1066,0.1071,0.1079,0.1082,0.1086,0.107,0.1067,0.1065,0.1091,0.1067,0.1065,0.1088,0.1088,0.1088,0,0,0.1004,0.0991,0.0988,0.0976,0.0992,0.0999,0.0995,0.1019,0.1026,0.1038,0.1058,0.1051,0.1063,0.1068,0.1065,0.1074,0.1058,0.1063,0.1061,0.1089,0.1066,0.1064,0.1062,0.1087,0.1087,0.1088,0,0,0.1045,0.1038,0.1026,0.1026,0.1019,0.1029,0.102,0.1028,0.1033,0.1036,0.1042,0.1032,0.1039,0.105,0.1054,0.1039,0.1038,0.1023,0.1044,0.102,0.1018,0.1017,0.1011,0.1009,0.1028,0.1028,0.1028,0,0.1069,0.1052,0.1035,0.1033,0.1041,0.1031,0.1033,0.1045,0.1051,0.1047,0.1038,0.1039,0.1038,0.1046,0.1045,0.1035,0.1026,0.1056,0.1017,0.1016,0.1015,0.1009,0.1007,0.1027,0.1027,0.1027,0.1027,0,0.1088,0.108,0.1091,0.1065,0.108,0.109,0.1081,0.1081,0.1069,0.1064,0.1049,0.1048,0.1051,0.1031,0.1042,0.1029,0.1027,0.101,0.1028,0.1012,0.1006,0.1005,0.1025,0.1026,0.1026,0.1026,0,0,0.1086,0.109,0.1086,0.1083,0.1091,0.1105,0.1117,0.1107,0.1111,0.1092,0.1088,0.108,0.1066,0.1072,0.1059,0.1045,0.102,0.1031,0.103,0.1032,0.0976,0.0951,0.0948,0.0988,0.0988,0.0988,0.0972,0,0.1081,0.1086,0.1089,0.1108,0.1107,0.1119,0.1135,0.1138,0.1129,0.1126,0.1103,0.1101,0.1084,0.108,0.1061,0.1044,0.1018,0.1028,0.0989,0.0989,0.0973,0.0946,0.0949,0.0933,0.0971,0.0971,0.0971,0,0.1059,0.1065,0.1078,0.1108,0.1111,0.1129,0.1152,0.1166,0.1167,0.1158,0.115,0.1136,0.1136,0.1102,0.1073,0.1079,0.1031,0.1004,0.1002,0.0993,0.0962,0.0957,0.093,0.0873,0.0969,0.0969,0.0969,0,0.1037,0.105,0.1063,0.1076,0.1113,0.1122,0.1145,0.1165,0.1173,0.1182,0.1187,0.1175,0.1173,0.1125,0.1087,0.1074,0.1042,0.101,0.0938,0.0937,0.0944,0.0943,0.0868,0.0958,0.0958,0.0958,0.0958,0,0.1018,0.1021,0.1052,0.1062,0.1079,0.112,0.1137,0.1159,0.1183,0.1198,0.1204,0.1214,0.1174,0.1153,0.1101,0.1036,0.1049,0.0952,0.0929,0.0935,0.0934,0.089,0.0858,0.0958,0.0958,0.0958,0.0958,0,0.0989,0.1009,0.1019,0.1056,0.1067,0.1084,0.1129,0.1146,0.1183,0.1205,0.1212,0.1241,0.1232,0.1188,0.1123,0.1055,0.0946,0.0951,0.0975,0.0955,0.0826,0.0793,0.0683,0.0645,0.0874,0.0873,0.0873,0,0.0975,0.0978,0.1009,0.102,0.1033,0.1059,0.108,0.1128,0.1149,0.1219,0.123,0.1246,0.1256,0.1186,0.1086,0.0995,0.0918,0.0907,0.0871,0.0826,0.0773,0.0719,0.0692,0.0874,0.0873,0.0873,0.0872,0,0.0952,0.0961,0.0978,0.0997,0.1016,0.1045,0.1079,0.109,0.1154,0.1181,0.1236,0.1262,0.1226,0.1167,0.1055,0.0978,0.0854,0.0891,0.0834,0.0763,0.0711,0.0663,0.089,0.0868,0.0868,0.0869,0.0869,0.0869,0.0934,0.094,0.0969,0.0986,0.1008,0.1045,0.1067,0.1098,0.1136,0.1205,0.1237,0.1308,0.1275,0.1142,0.1,0.081,0.079,0.0746,0.0711,0.0661,0.0617,0.0841,0.0793,0.0793,0.0793,0.0793,0.0793,0,0.0937,0.0956,0.0965,0.0999,0.1019,0.104,0.1085,0.1111,0.1146,0.1219,0.1275,0.1388,0.1228,0.11,0.086,0.0684,0.0596,0.0598,0.0537,0.0519,0.0718,0.071,0.0654,0.0654,0.0654,0.0655,0.0655,0.0655,0.0942,0.0959,0.0967,0.1008,0.1031,0.1081,0.1108,0.1138,0.1199,0.132,0.1437,0.1556,0.1591,0.1045,0.0677,0.0561,0.0438,0.038,0.0325,0.0487,0.0498,0.0509,0.0495,0.0395,0.0394,0.0139,0.0137,0.0135]}],[{"header":{"parameterUnit":"m.s-1","parameterCategory":2,"la1":30.2991,"la2":30.254,"lo1":-89.0895,"lo2":-89.0444,"dy":0.0017,"dx":0.0017,"nx":28,"ny":28,"refTime":"2023-07-23T21:00:00:Z","depth":"2","parameterNumber":2,"parameterNumberName":"U-component_of_CURRENTS"},"data":[0,0,0,0,0,0,0,0,0,0,0,0,0,0,0,0,0,0,0,0,0,0,0,0,0,0,0,0,0,0,0,0,0,0,0,0,0,0,0,0,0,0,0,0,0,0,0,0,0,0,0,0,0,0,0,0,0,0,-0.0379,-0.0379,0,-0.036,-0.036,-0.0359,-0.0271,-0.0269,-0.0267,-0.0264,-0.0217,-0.0217,-0.0218,0,0,0,0,0,0,0,0,0,0,0,0,0,-0.0437,-0.0436,-0.038,-0.0379,-0.0379,-0.036,-0.036,-0.0359,-0.0271,-0.0269,-0.0266,-0.0264,-0.0216,-0.0217,-0.0218,0,0,0,0,0,0,0,0,0,0,0,0,0,-0.0415,-0.0435,-0.038,-0.0332,-0.0327,-0.036,-0.0359,-0.0359,-0.0272,-0.0269,-0.0265,-0.0262,-0.0216,-0.0217,-0.0218,-0.029,0,0,-0.0222,-0.0222,0,0,0,0,0,0,0,0,-0.0416,-0.0413,-0.0339,-0.0335,-0.033,-0.0313,-0.0362,-0.0335,-0.0273,-0.0294,-0.0264,-0.0261,-0.0248,-0.0247,-0.0252,-0.0288,-0.0286,-0.0222,-0.0223,-0.0223,-0.0223,0,0,0,0,0,0,0,-0.0418,-0.0414,-0.0373,-0.0339,-0.0333,-0.0344,-0.0337,-0.0357,-0.029,-0.0292,-0.0285,-0.0282,-0.0245,-0.0251,-0.025,-0.0285,-0.0222,-0.0223,-0.0224,-0.0224,-0.0304,-0.0305,0,0,0,0,0,0,-0.0416,-0.0415,-0.0373,-0.0372,-0.0365,-0.0345,-0.0337,-0.0323,-0.029,-0.0282,-0.0285,-0.0278,-0.0251,-0.0249,-0.0248,-0.0237,-0.0223,-0.0224,-0.0225,-0.0303,-0.0304,-0.0306,0,0,0,0,0,0,-0.0418,-0.0413,-0.0374,-0.0393,-0.0388,-0.0347,-0.0333,-0.0324,-0.0292,-0.0285,-0.0276,-0.0256,-0.0248,-0.0246,-0.0254,-0.0238,-0.0225,-0.0226,-0.0301,-0.0303,-0.0305,-0.0276,0,0,0,0,0,0,-0.0419,-0.0413,-0.0405,-0.0392,-0.0387,-0.0383,-0.0335,-0.0326,-0.0297,-0.0287,-0.0259,-0.0253,-0.0245,-0.0253,-0.0256,-0.0239,-0.0227,-0.0299,-0.0302,-0.0304,-0.0275,-0.0277,-0.0278,0,0,0,0,0,-0.0421,-0.0432,-0.0404,-0.0399,-0.0376,-0.0383,-0.0382,-0.0343,-0.0298,-0.0299,-0.028,-0.0251,-0.0271,-0.0256,-0.0258,-0.0241,-0.0298,-0.0301,-0.0304,-0.0274,-0.0276,-0.0278,0,0,0,0,0,0,-0.0479,-0.0423,-0.0393,-0.0391,-0.0379,-0.0367,-0.0369,-0.0335,-0.0321,-0.0298,-0.0278,-0.0274,-0.0272,-0.0281,-0.0263,-0.0278,-0.0278,-0.0282,-0.0254,-0.0256,-0.0258,-0.0264,-0.0227,0,0,0,0,0,-0.0483,-0.0458,-0.0426,-0.0429,-0.0416,-0.0385,-0.038,-0.0348,-0.0335,-0.0322,-0.0303,-0.0294,-0.03,-0.0293,-0.0305,-0.0322,-0.032,-0.0315,-0.0316,-0.0317,-0.0329,-0.0325,-0.0326,-0.0317,-0.0317,-0.0317,0,0,-0.0511,-0.0478,-0.0465,-0.0437,-0.042,-0.0425,-0.0373,-0.0359,-0.0359,-0.0325,-0.0318,-0.03,-0.0309,-0.0318,-0.0317,-0.0312,-0.0317,-0.0321,-0.0321,-0.0333,-0.0329,-0.0329,-0.033,-0.0319,-0.0318,-0.0318,0,0,-0.0564,-0.0517,-0.0511,-0.0497,-0.046,-0.0446,-0.0433,-0.04,-0.0373,-0.0378,-0.0344,-0.0323,-0.0338,-0.0331,-0.0333,-0.0363,-0.0329,-0.0354,-0.0358,-0.0353,-0.0353,-0.0353,-0.0332,-0.0331,-0.035,-0.0349,-0.0349,0,-0.0601,-0.0577,-0.0522,-0.0521,-0.051,-0.0452,-0.0458,-0.0447,-0.0421,-0.0402,-0.0374,-0.0362,-0.0351,-0.0356,-0.0353,-0.0362,-0.0347,-0.0338,-0.0351,-0.0352,-0.0352,-0.0331,-0.0329,-0.0348,-0.0349,-0.0349,-0.0349,0,-0.0643,-0.0625,-0.0628,-0.0591,-0.0584,-0.0579,-0.0545,-0.0526,-0.0477,-0.0452,-0.0424,-0.0409,-0.0393,-0.038,-0.0372,-0.0364,-0.0347,-0.035,-0.0335,-0.035,-0.0328,-0.0327,-0.0347,-0.0347,-0.0348,-0.0348,0,0,-0.0708,-0.0663,-0.0659,-0.0638,-0.0604,-0.0597,-0.0603,-0.0578,-0.0554,-0.0519,-0.0493,-0.048,-0.0424,-0.0427,-0.0393,-0.038,-0.0351,-0.0357,-0.0357,-0.0316,-0.032,-0.0268,-0.0261,-0.0341,-0.0342,-0.0342,-0.0295,0,-0.075,-0.0752,-0.072,-0.0723,-0.0711,-0.0664,-0.0669,-0.0636,-0.06,-0.0567,-0.0518,-0.0489,-0.0457,-0.0419,-0.0404,-0.0367,-0.0351,-0.0363,-0.0331,-0.033,-0.0264,-0.026,-0.0271,-0.0227,-0.0293,-0.0293,-0.0293,0,-0.0782,-0.077,-0.0775,-0.0737,-0.0727,-0.0724,-0.068,-0.0677,-0.0632,-0.0597,-0.0555,-0.0512,-0.0473,-0.0447,-0.0397,-0.0398,-0.0362,-0.0336,-0.0334,-0.0299,-0.0276,-0.023,-0.0222,-0.0291,-0.0291,-0.0291,-0.0292,0,-0.0809,-0.08,-0.0793,-0.0783,-0.0749,-0.0729,-0.0707,-0.0668,-0.0645,-0.0603,-0.057,-0.053,-0.0481,-0.0453,-0.0377,-0.0385,-0.0319,-0.033,-0.0255,-0.0251,-0.0265,-0.0261,-0.0312,-0.0312,-0.0312,-0.0312,-0.0312,0,-0.0843,-0.0831,-0.0793,-0.0782,-0.0759,-0.0727,-0.0694,-0.0674,-0.0631,-0.0594,-0.0565,-0.0528,-0.0478,-0.0424,-0.0383,-0.0297,-0.0323,-0.0255,-0.0237,-0.0254,-0.025,-0.032,-0.0322,-0.031,-0.0311,-0.0311,-0.0311,0,-0.0862,-0.0845,-0.0823,-0.0781,-0.0764,-0.0735,-0.0679,-0.0658,-0.0619,-0.0576,-0.0557,-0.051,-0.0438,-0.0381,-0.0319,-0.0284,-0.0228,-0.0194,-0.0201,-0.0185,-0.0165,-0.0167,-0.0126,-0.0123,-0.0122,-0.012,-0.0119,0,-0.0876,-0.0863,-0.0814,-0.0792,-0.0763,-0.0718,-0.069,-0.0651,-0.0627,-0.056,-0.0539,-0.0461,-0.0396,-0.028,-0.02,-0.0115,-0.0154,-0.0099,-0.0129,-0.0161,-0.0148,-0.0152,-0.0155,-0.0133,-0.0132,-0.0131,-0.013,0,-0.0889,-0.0856,-0.0832,-0.0785,-0.0747,-0.0719,-0.0671,-0.0655,-0.0602,-0.0562,-0.0493,-0.0436,-0.0299,-0.0195,-0.0078,-0.0057,-0.0116,-0.0076,-0.0115,-0.017,-0.0162,-0.015,-0.0155,-0.0122,-0.0123,-0.0123,-0.0124,-0.0124,-0.088,-0.0858,-0.0812,-0.0761,-0.0737,-0.0704,-0.0665,-0.0627,-0.058,-0.0481,-0.045,-0.0317,-0.0271,-0.0058,-0.0011,0.0032,0.0006,-0.003,-0.0036,-0.0042,-0.0044,-0.0032,0.0033,0.0033,0.0033,0.0033,0.0033,0,-0.0856,-0.0819,-0.0789,-0.073,-0.0705,-0.0684,-0.0641,-0.0592,-0.0525,-0.0416,-0.0319,-0.0195,-0.0099,-0.0025,0.0084,0.0105,0.0064,0.0067,0.0005,-0.0004,-0.0012,-0.0014,0.0072,0.0072,0.0073,0.0074,0,0,-0.0835,-0.0786,-0.0762,-0.0699,-0.0662,-0.0597,-0.0563,-0.0505,-0.0414,-0.0272,-0.0145,-0.0081,-0.0026,0.0043,0.0039,0.0092,0.0036,0.0075,0.0034,-0.005,-0.0056,-0.0085,-0.01,0,0,0,0,0]},{"header":{"parameterUnit":"m.s-1","parameterCategory":2,"la1":30.2991,"la2":30.254,"lo1":-89.0895,"lo2":-89.0444,"dy":0.0017,"dx":0.0017,"nx":28,"ny":28,"refTime":"2023-07-23T21:00:00:Z","depth":"2","parameterNumber":3,"parameterNumberName":"V-component_of_CURRENTS"},"data":[0,0,0,0,0,0,0,0,0,0,0,0,0,0,0,0,0,0,0,0,0,0,0,0,0,0,0,0,0,0,0,0,0,0,0,0,0,0,0,0,0,0,0,0,0,0,0,0,0,0,0,0,0,0,0,0,0,0,-0.1019,-0.1019,0,-0.1035,-0.1035,-0.1035,-0.1021,-0.1021,-0.1021,-0.1021,-0.1021,-0.1021,-0.1021,0,0,0,0,0,0,0,0,0,0,0,0,0,-0.102,-0.1019,-0.1019,-0.1019,-0.102,-0.1035,-0.1035,-0.1035,-0.1021,-0.1021,-0.1021,-0.1021,-0.1021,-0.1021,-0.1021,0,0,0,0,0,0,0,0,0,0,0,0,0,-0.1022,-0.1019,-0.1019,-0.1019,-0.1019,-0.1035,-0.1035,-0.1034,-0.1021,-0.1021,-0.1021,-0.1021,-0.1021,-0.1021,-0.1021,-0.1027,0,0,-0.1022,-0.1022,0,0,0,0,0,0,0,0,-0.1021,-0.1021,-0.1018,-0.1019,-0.1019,-0.103,-0.1036,-0.1033,-0.1021,-0.1015,-0.1021,-0.102,-0.1026,-0.1026,-0.1023,-0.1027,-0.1027,-0.1022,-0.1022,-0.1022,-0.1022,0,0,0,0,0,0,0,-0.1021,-0.102,-0.102,-0.1019,-0.102,-0.1033,-0.1032,-0.1035,-0.1017,-0.1016,-0.1016,-0.1026,-0.1025,-0.1022,-0.1023,-0.1027,-0.1022,-0.1022,-0.1022,-0.1022,-0.1009,-0.1009,0,0,0,0,0,0,-0.1027,-0.102,-0.102,-0.1021,-0.1025,-0.1034,-0.1032,-0.1023,-0.1018,-0.1018,-0.1026,-0.1025,-0.1022,-0.1022,-0.1023,-0.101,-0.1022,-0.1022,-0.1023,-0.101,-0.1009,-0.1009,0,0,0,0,0,0,-0.1026,-0.1026,-0.1019,-0.1026,-0.1027,-0.1034,-0.1023,-0.1023,-0.1028,-0.1026,-0.1026,-0.1032,-0.1022,-0.1022,-0.1031,-0.1011,-0.1023,-0.1023,-0.101,-0.101,-0.1009,-0.0997,0,0,0,0,0,0,-0.1026,-0.1025,-0.1027,-0.1026,-0.1027,-0.1032,-0.1024,-0.1024,-0.1036,-0.1035,-0.1032,-0.1031,-0.1022,-0.103,-0.1031,-0.1011,-0.1023,-0.1011,-0.101,-0.1009,-0.0998,-0.0996,-0.0994,0,0,0,0,0,-0.1025,-0.1016,-0.1026,-0.1027,-0.1026,-0.1033,-0.1034,-0.1036,-0.1037,-0.1038,-0.1038,-0.1031,-0.1024,-0.1031,-0.1031,-0.1011,-0.1011,-0.101,-0.1009,-0.0999,-0.0997,-0.0994,0,0,0,0,0,0,-0.1007,-0.1015,-0.1025,-0.1017,-0.1032,-0.1032,-0.1036,-0.1043,-0.1044,-0.1042,-0.1038,-0.1038,-0.1033,-0.103,-0.1037,-0.1004,-0.1011,-0.101,-0.1003,-0.1001,-0.0999,-0.0976,-0.1023,0,0,0,0,0,-0.1009,-0.1008,-0.1023,-0.1018,-0.1026,-0.1037,-0.1044,-0.1045,-0.1047,-0.1047,-0.1046,-0.1039,-0.1028,-0.1023,-0.1018,-0.101,-0.0992,-0.0993,-0.0991,-0.099,-0.0971,-0.0938,-0.0931,-0.1005,-0.1005,-0.1005,0,0,-0.0999,-0.1007,-0.1005,-0.1017,-0.1025,-0.1018,-0.1038,-0.1044,-0.1032,-0.1047,-0.1033,-0.1041,-0.1028,-0.1012,-0.1008,-0.1007,-0.0961,-0.0988,-0.0987,-0.0968,-0.0936,-0.0929,-0.0922,-0.1005,-0.1005,-0.1005,0,0,-0.0967,-0.0988,-0.0973,-0.0984,-0.1005,-0.1014,-0.102,-0.1029,-0.103,-0.1032,-0.1028,-0.1028,-0.1022,-0.1,-0.0988,-0.0975,-0.0958,-0.0973,-0.0938,-0.0908,-0.0901,-0.0895,-0.0872,-0.0863,-0.0965,-0.0965,-0.0965,0,-0.095,-0.0936,-0.0972,-0.0959,-0.0961,-0.101,-0.0987,-0.0997,-0.1007,-0.1,-0.1024,-0.1001,-0.1007,-0.0963,-0.0958,-0.0969,-0.0951,-0.095,-0.0904,-0.0898,-0.0892,-0.0869,-0.086,-0.0965,-0.0965,-0.0965,-0.0965,0,-0.0907,-0.0898,-0.0892,-0.089,-0.09,-0.0896,-0.0918,-0.0928,-0.095,-0.0952,-0.0941,-0.0956,-0.0935,-0.0939,-0.0946,-0.0898,-0.0901,-0.0913,-0.0909,-0.0884,-0.0862,-0.0853,-0.0964,-0.0964,-0.0964,-0.0964,0,0,-0.0851,-0.0856,-0.0854,-0.0847,-0.0863,-0.0866,-0.0855,-0.0854,-0.0843,-0.0868,-0.084,-0.0842,-0.0862,-0.085,-0.0863,-0.0842,-0.0803,-0.0857,-0.0856,-0.0831,-0.0734,-0.0739,-0.0729,-0.0806,-0.0804,-0.0803,-0.0739,0,-0.0803,-0.0771,-0.078,-0.075,-0.0741,-0.0772,-0.0755,-0.0764,-0.0785,-0.0779,-0.0795,-0.0786,-0.0824,-0.0823,-0.0806,-0.0808,-0.0776,-0.0819,-0.0763,-0.0761,-0.0767,-0.0718,-0.0666,-0.0604,-0.073,-0.0729,-0.0728,0,-0.0756,-0.0746,-0.0708,-0.0691,-0.0687,-0.0675,-0.0674,-0.0666,-0.067,-0.0681,-0.0679,-0.0703,-0.0685,-0.0729,-0.0694,-0.072,-0.0715,-0.0718,-0.0716,-0.0712,-0.0748,-0.0649,-0.0583,-0.0712,-0.0714,-0.0715,-0.0716,0,-0.0729,-0.0693,-0.0669,-0.0665,-0.0654,-0.0638,-0.0634,-0.0636,-0.0629,-0.0626,-0.0624,-0.0612,-0.0619,-0.0604,-0.0634,-0.0654,-0.0597,-0.0626,-0.0615,-0.0616,-0.0554,-0.0553,-0.0571,-0.0572,-0.0572,-0.0572,-0.0572,0,-0.0686,-0.0663,-0.0659,-0.0649,-0.0618,-0.0614,-0.0586,-0.0584,-0.0573,-0.0558,-0.0578,-0.0571,-0.0589,-0.0579,-0.0591,-0.0576,-0.0559,-0.0586,-0.0589,-0.0552,-0.0551,-0.0633,-0.0641,-0.057,-0.057,-0.057,-0.0571,0,-0.0664,-0.0658,-0.0634,-0.0617,-0.061,-0.0596,-0.057,-0.0555,-0.0544,-0.0526,-0.0524,-0.053,-0.0519,-0.0529,-0.0511,-0.0526,-0.051,-0.0504,-0.0468,-0.0467,-0.0558,-0.0566,-0.0471,-0.047,-0.047,-0.0469,-0.0469,0,-0.0646,-0.0636,-0.0626,-0.0615,-0.0607,-0.0586,-0.0571,-0.0553,-0.0537,-0.0509,-0.0497,-0.0482,-0.047,-0.0446,-0.0441,-0.0421,-0.0475,-0.0395,-0.0423,-0.0529,-0.0542,-0.0551,-0.0559,-0.0337,-0.0336,-0.0335,-0.0334,0,-0.0613,-0.0623,-0.061,-0.0599,-0.0586,-0.0566,-0.0541,-0.0524,-0.0502,-0.0479,-0.045,-0.0431,-0.0397,-0.0357,-0.0343,-0.0343,-0.0397,-0.0373,-0.0458,-0.0387,-0.0402,-0.0416,-0.0428,-0.0324,-0.0325,-0.0325,-0.0326,-0.0326,-0.0591,-0.0584,-0.058,-0.057,-0.0559,-0.0541,-0.0514,-0.0488,-0.0454,-0.0381,-0.0392,-0.032,-0.0317,-0.0243,-0.0264,-0.0287,-0.0305,-0.0324,-0.0328,-0.0332,-0.0344,-0.0359,-0.0274,-0.0275,-0.0276,-0.0276,-0.0277,0,-0.0557,-0.0555,-0.0544,-0.0531,-0.0522,-0.0521,-0.0487,-0.0447,-0.0401,-0.0296,-0.0243,-0.0209,-0.0159,-0.0172,-0.0165,-0.02,-0.0207,-0.0238,-0.0231,-0.0239,-0.0247,-0.0256,-0.0162,-0.0162,-0.0162,-0.0163,0,0,-0.0533,-0.0524,-0.0528,-0.0505,-0.0493,-0.046,-0.0437,-0.0375,-0.0282,-0.0181,-0.0095,-0.0013,-0.0057,-0.0049,-0.0097,-0.0111,-0.0166,-0.0121,-0.0199,-0.0187,-0.0194,-0.0275,-0.0295,0,0,0,0,0]}],[{"header":{"parameterUnit":"m.s-1","parameterCategory":2,"la1":30.2991,"la2":30.254,"lo1":-89.0895,"lo2":-89.0444,"dy":0.0017,"dx":0.0017,"nx":28,"ny":28,"refTime":"2023-07-23T21:00:00:Z","depth":"4","parameterNumber":2,"parameterNumberName":"U-component_of_CURRENTS"},"data":[0,0,0,0,0,0,0,0,0,0,0,0,0,0,0,0,0,0,0,0,0,0,0,0,0,0,0,0,0,0,0,0,0,0,0,0,0,0,0,0,0,0,0,0,0,0,0,0,0,0,0,0,0,0,0,0,0,0,-0.0284,-0.0286,0,-0.0367,-0.0368,-0.0368,-0.0453,-0.0454,-0.0456,-0.0457,-0.0551,-0.0552,-0.0553,0,0,0,0,0,0,0,0,0,0,0,0,0,-0.0248,-0.0247,-0.0284,-0.0286,-0.0287,-0.0367,-0.0368,-0.0369,-0.0452,-0.0454,-0.0456,-0.0458,-0.0551,-0.0552,-0.0553,0,0,0,0,0,0,0,0,0,0,0,0,0,-0.0286,-0.0247,-0.0284,-0.0342,-0.0348,-0.0367,-0.0368,-0.0369,-0.0452,-0.0454,-0.0457,-0.0459,-0.0551,-0.0552,-0.0554,-0.0517,0,0,-0.0558,-0.0559,0,0,0,0,0,0,0,0,-0.0284,-0.0287,-0.0332,-0.0338,-0.0345,-0.0406,-0.039,-0.042,-0.0451,-0.0408,-0.0457,-0.046,-0.0505,-0.051,-0.0514,-0.0521,-0.0525,-0.0559,-0.056,-0.056,-0.0561,0,0,0,0,0,0,0,-0.0281,-0.0284,-0.0313,-0.0333,-0.0342,-0.0381,-0.0388,-0.0396,-0.0439,-0.0412,-0.0419,-0.0435,-0.0508,-0.0512,-0.0517,-0.0527,-0.0559,-0.056,-0.0561,-0.0562,-0.0703,-0.0705,0,0,0,0,0,0,-0.0274,-0.0281,-0.031,-0.0315,-0.0325,-0.038,-0.0388,-0.038,-0.0439,-0.0451,-0.0433,-0.0439,-0.0509,-0.0515,-0.0521,-0.0617,-0.056,-0.0562,-0.0563,-0.07,-0.0703,-0.0706,0,0,0,0,0,0,-0.0273,-0.0275,-0.0307,-0.0306,-0.0313,-0.0378,-0.0369,-0.0381,-0.0428,-0.0456,-0.0468,-0.0474,-0.0511,-0.0519,-0.0584,-0.0617,-0.0562,-0.0564,-0.0697,-0.0701,-0.0705,-0.0722,0,0,0,0,0,0,-0.0271,-0.0273,-0.0278,-0.0304,-0.0313,-0.0328,-0.0368,-0.0381,-0.0433,-0.0443,-0.0493,-0.0502,-0.0513,-0.0582,-0.0586,-0.0618,-0.0565,-0.0693,-0.0698,-0.0703,-0.0718,-0.0726,-0.0734,0,0,0,0,0,-0.0269,-0.0267,-0.0277,-0.0283,-0.0312,-0.0329,-0.0336,-0.0389,-0.0433,-0.0442,-0.0508,-0.0503,-0.0619,-0.0585,-0.0589,-0.0622,-0.069,-0.0697,-0.0703,-0.0715,-0.0725,-0.0733,0,0,0,0,0,0,-0.0265,-0.0276,-0.0289,-0.0293,-0.0314,-0.0345,-0.0374,-0.0405,-0.046,-0.05,-0.0524,-0.0537,-0.0612,-0.0619,-0.0581,-0.0686,-0.0658,-0.0666,-0.0666,-0.0676,-0.0683,-0.0647,-0.0566,0,0,0,0,0,-0.026,-0.0265,-0.0277,-0.0291,-0.0299,-0.034,-0.0364,-0.0402,-0.045,-0.0479,-0.0526,-0.0587,-0.0631,-0.0657,-0.0697,-0.0735,-0.07,-0.0768,-0.0776,-0.0782,-0.0761,-0.0735,-0.0736,-0.0727,-0.0727,-0.0727,0,0,-0.0265,-0.0278,-0.0282,-0.0292,-0.0319,-0.0346,-0.036,-0.0411,-0.0456,-0.0479,-0.0576,-0.0616,-0.0652,-0.0714,-0.0747,-0.0726,-0.0774,-0.079,-0.0794,-0.0769,-0.0742,-0.0742,-0.0741,-0.0731,-0.073,-0.073,0,0,-0.0286,-0.0287,-0.0298,-0.0314,-0.036,-0.0381,-0.04,-0.0453,-0.0496,-0.0572,-0.0617,-0.0672,-0.0748,-0.0769,-0.0789,-0.0859,-0.0821,-0.0897,-0.0893,-0.087,-0.0868,-0.0866,-0.0834,-0.0829,-0.0893,-0.0893,-0.0893,0,-0.0299,-0.0306,-0.0308,-0.0332,-0.0361,-0.04,-0.0432,-0.047,-0.0552,-0.0578,-0.0618,-0.0727,-0.0766,-0.0802,-0.0847,-0.087,-0.0849,-0.0846,-0.0872,-0.087,-0.0868,-0.0835,-0.0829,-0.0894,-0.0894,-0.0894,-0.0894,0,-0.0324,-0.034,-0.0355,-0.0392,-0.042,-0.0455,-0.05,-0.0551,-0.0619,-0.0651,-0.0722,-0.077,-0.0818,-0.0856,-0.0877,-0.0893,-0.0881,-0.0884,-0.083,-0.0868,-0.0833,-0.0827,-0.0897,-0.0896,-0.0896,-0.0895,0,0,-0.0316,-0.0359,-0.0367,-0.0387,-0.0456,-0.0473,-0.0551,-0.0592,-0.0631,-0.0708,-0.0738,-0.0825,-0.0834,-0.0857,-0.0882,-0.0871,-0.0858,-0.0877,-0.0875,-0.0812,-0.0798,-0.0706,-0.069,-0.0862,-0.0861,-0.086,-0.0781,0,-0.0336,-0.0369,-0.0402,-0.0456,-0.0471,-0.0529,-0.0586,-0.0642,-0.0693,-0.0732,-0.0758,-0.0805,-0.0837,-0.0861,-0.0856,-0.0863,-0.0842,-0.0879,-0.0799,-0.0796,-0.0681,-0.0679,-0.0857,-0.0776,-0.0774,-0.0773,-0.0772,0,-0.0342,-0.0362,-0.0409,-0.0462,-0.0477,-0.0544,-0.0614,-0.0666,-0.0717,-0.0747,-0.077,-0.0786,-0.0795,-0.0817,-0.0794,-0.0818,-0.0808,-0.0801,-0.0797,-0.069,-0.069,-0.0733,-0.076,-0.0761,-0.0762,-0.0763,-0.0763,0,-0.0308,-0.0362,-0.0396,-0.0419,-0.0496,-0.0558,-0.0619,-0.0689,-0.0715,-0.075,-0.0756,-0.076,-0.0764,-0.0748,-0.0745,-0.0771,-0.0697,-0.0727,-0.0623,-0.0616,-0.0712,-0.0715,-0.0686,-0.0686,-0.0686,-0.0686,-0.0686,0,-0.0297,-0.0321,-0.0395,-0.0418,-0.0472,-0.0552,-0.0622,-0.0668,-0.0725,-0.0726,-0.076,-0.0733,-0.0748,-0.0712,-0.0713,-0.063,-0.0664,-0.0597,-0.058,-0.0728,-0.0734,-0.0707,-0.0711,-0.0683,-0.0684,-0.0684,-0.0685,0,-0.026,-0.03,-0.0336,-0.0427,-0.0462,-0.0514,-0.0624,-0.0639,-0.0715,-0.0713,-0.0716,-0.0707,-0.0634,-0.0622,-0.0579,-0.0571,-0.0516,-0.048,-0.0618,-0.0614,-0.0461,-0.0468,-0.0346,-0.0342,-0.0339,-0.0336,-0.0333,0,-0.0244,-0.0263,-0.0332,-0.0351,-0.0413,-0.0496,-0.0529,-0.0623,-0.0623,-0.0674,-0.0632,-0.0593,-0.0566,-0.0417,-0.0428,-0.0367,-0.0373,-0.0365,-0.043,-0.0426,-0.0422,-0.0434,-0.0445,-0.0328,-0.0327,-0.0326,-0.0325,0,-0.0223,-0.0258,-0.0282,-0.0313,-0.0361,-0.0372,-0.0438,-0.0434,-0.051,-0.0572,-0.0515,-0.0485,-0.0384,-0.0325,-0.0272,-0.0249,-0.0385,-0.0329,-0.0338,-0.0398,-0.0402,-0.0405,-0.0419,-0.0313,-0.0315,-0.0316,-0.0317,0,-0.0215,-0.0218,-0.0252,-0.0277,-0.0287,-0.0256,-0.0302,-0.0303,-0.0325,-0.0399,-0.0366,-0.0341,-0.0351,-0.0259,-0.0216,-0.0167,-0.0172,-0.0208,-0.0223,-0.0237,-0.0239,-0.023,-0.0046,0,0,0,0,0,-0.0207,-0.0202,-0.021,-0.0218,-0.0204,-0.0211,-0.0222,-0.026,-0.0332,-0.0259,-0.0328,-0.0235,-0.0178,-0.0159,-0.0076,-0.0144,-0.0162,-0.0053,-0.0209,-0.0246,-0.026,-0.0273,0,0,0,0,0,0,-0.0202,-0.0206,-0.0198,-0.0151,-0.0133,-0.0109,-0.0102,-0.0146,-0.011,-0.0192,-0.0125,-0.0223,-0.0121,-0.02,-0.0071,-0.0068,-0.0161,-0.0055,-0.0054,-0.0238,-0.0251,-0.0262,-0.0281,0,0,0,0,0]},{"header":{"parameterUnit":"m.s-1","parameterCategory":2,"la1":30.2991,"la2":30.254,"lo1":-89.0895,"lo2":-89.0444,"dy":0.0017,"dx":0.0017,"nx":28,"ny":28,"refTime":"2023-07-23T21:00:00:Z","depth":"4","parameterNumber":3,"parameterNumberName":"V-component_of_CURRENTS"},"data":[0,0,0,0,0,0,0,0,0,0,0,0,0,0,0,0,0,0,0,0,0,0,0,0,0,0,0,0,0,0,0,0,0,0,0,0,0,0,0,0,0,0,0,0,0,0,0,0,0,0,0,0,0,0,0,0,0,0,0.023,0.023,0,0.0249,0.0249,0.0249,0.0214,0.0213,0.0212,0.0212,0.0147,0.0146,0.0145,0,0,0,0,0,0,0,0,0,0,0,0,0,0.0186,0.0186,0.023,0.023,0.0231,0.0249,0.0249,0.0249,0.0214,0.0213,0.0212,0.0211,0.0147,0.0146,0.0145,0,0,0,0,0,0,0,0,0,0,0,0,0,0.02,0.0186,0.023,0.0219,0.0219,0.0249,0.0249,0.0249,0.0214,0.0213,0.0212,0.0211,0.0148,0.0146,0.0145,0.0157,0,0,0.014,0.0139,0,0,0,0,0,0,0,0,0.0199,0.0201,0.022,0.022,0.022,0.0232,0.021,0.0215,0.0214,0.0211,0.0212,0.021,0.0171,0.0168,0.0168,0.0154,0.0151,0.014,0.0139,0.0138,0.0138,0,0,0,0,0,0,0,0.0198,0.0201,0.0233,0.0221,0.0221,0.0222,0.0222,0.0211,0.0192,0.0211,0.021,0.022,0.017,0.017,0.0167,0.015,0.014,0.0138,0.0137,0.0137,0.002,0.0018,0,0,0,0,0,0,0.0206,0.02,0.0232,0.0234,0.0212,0.0224,0.0224,0.0225,0.0194,0.019,0.0221,0.0218,0.0173,0.0168,0.0164,0.0087,0.0138,0.0137,0.0136,0.0022,0.002,0.0018,0,0,0,0,0,0,0.0205,0.0208,0.0231,0.0221,0.0225,0.0226,0.0228,0.0226,0.0208,0.0203,0.0196,0.0202,0.0172,0.0166,0.0127,0.0087,0.0136,0.0135,0.0025,0.0022,0.0019,-0.0011,0,0,0,0,0,0,0.0203,0.0207,0.0205,0.0222,0.0226,0.0224,0.023,0.0228,0.0219,0.0215,0.0185,0.0179,0.0171,0.0129,0.0125,0.0086,0.0133,0.0028,0.0024,0.002,-0.0007,-0.0015,-0.0021,0,0,0,0,0,0.0201,0.0198,0.0204,0.0209,0.0224,0.0223,0.0224,0.0219,0.0219,0.0199,0.018,0.0179,0.01,0.0127,0.0123,0.0082,0.003,0.0025,0.002,-0.0004,-0.0013,-0.0021,0,0,0,0,0,0,0.0172,0.0195,0.0202,0.0205,0.0206,0.0218,0.021,0.0212,0.0185,0.0177,0.0167,0.0159,0.0102,0.0097,0.0128,0.0032,0.0058,0.0053,0.0041,0.0033,0.0026,0.0033,0.0132,0,0,0,0,0,0.017,0.0173,0.019,0.019,0.019,0.0199,0.0199,0.0195,0.0184,0.0171,0.0149,0.0118,0.0083,0.0064,0.0032,-0.0003,0.0009,-0.004,-0.0047,-0.0053,-0.0053,-0.0065,-0.0071,0.0002,0.0002,0.0002,0,0,0.0158,0.0175,0.0174,0.0184,0.0187,0.0161,0.0192,0.0184,0.0153,0.0169,0.0108,0.0093,0.0066,0.0013,-0.0013,0.0004,-0.0068,-0.0059,-0.0063,-0.006,-0.007,-0.0077,-0.0083,-0.0002,-0.0001,-0.0001,0,0,0.0123,0.0149,0.0127,0.0124,0.0129,0.0135,0.0127,0.0124,0.0111,0.0074,0.0062,0.0029,-0.0019,-0.0048,-0.0066,-0.0129,-0.0108,-0.015,-0.0172,-0.0184,-0.0189,-0.0194,-0.018,-0.0183,-0.0149,-0.0149,-0.0149,0,0.0105,0.0086,0.0118,0.0089,0.0081,0.0113,0.0073,0.0068,0.0047,0.0037,0.004,-0.0028,-0.0051,-0.0108,-0.0135,-0.0145,-0.0133,-0.0132,-0.019,-0.0194,-0.0198,-0.0183,-0.0185,-0.0151,-0.0151,-0.015,-0.015,0,0.0041,0.0025,0.0013,-0.0013,-0.0022,-0.0041,-0.004,-0.0057,-0.0056,-0.0056,-0.0102,-0.0116,-0.0152,-0.0175,-0.0172,-0.0223,-0.0199,-0.0196,-0.0158,-0.0206,-0.0188,-0.019,-0.0154,-0.0153,-0.0152,-0.0152,0,0,0.0006,-0.0026,-0.003,-0.0053,-0.0072,-0.008,-0.0127,-0.0145,-0.016,-0.0177,-0.02,-0.0254,-0.0231,-0.0251,-0.0251,-0.0259,-0.0276,-0.0236,-0.0236,-0.0204,-0.0278,-0.0253,-0.0252,-0.0275,-0.0276,-0.0276,-0.025,0,-0.0054,-0.0111,-0.0122,-0.0185,-0.021,-0.0203,-0.0242,-0.0253,-0.0248,-0.0262,-0.0255,-0.028,-0.0269,-0.0272,-0.0284,-0.0276,-0.0285,-0.0282,-0.0253,-0.0252,-0.0208,-0.0256,-0.0279,-0.0252,-0.0252,-0.0253,-0.0253,0,-0.0118,-0.0138,-0.0209,-0.0244,-0.0257,-0.0302,-0.0323,-0.0349,-0.0351,-0.0342,-0.0346,-0.0327,-0.0341,-0.032,-0.0323,-0.0316,-0.0307,-0.0295,-0.0293,-0.026,-0.0231,-0.0199,-0.0256,-0.0256,-0.0256,-0.0256,-0.0255,0,-0.0131,-0.0196,-0.0245,-0.0262,-0.0308,-0.0346,-0.0366,-0.038,-0.0383,-0.0381,-0.0367,-0.0377,-0.0359,-0.0361,-0.0322,-0.0326,-0.0304,-0.031,-0.0281,-0.0277,-0.0289,-0.0285,-0.0328,-0.0328,-0.0328,-0.0328,-0.0328,0,-0.0172,-0.0211,-0.0257,-0.0281,-0.0337,-0.0364,-0.0407,-0.0418,-0.0422,-0.0417,-0.04,-0.0386,-0.0366,-0.0339,-0.0328,-0.0295,-0.031,-0.029,-0.0278,-0.0303,-0.0301,-0.029,-0.0286,-0.0327,-0.0327,-0.0327,-0.0327,0,-0.0184,-0.0216,-0.0267,-0.0323,-0.0348,-0.038,-0.0426,-0.0434,-0.0437,-0.0427,-0.0421,-0.0386,-0.0345,-0.0312,-0.0294,-0.0289,-0.0272,-0.026,-0.0265,-0.0252,-0.0238,-0.0236,-0.0243,-0.0242,-0.0242,-0.0241,-0.024,0,-0.0197,-0.0225,-0.0282,-0.031,-0.0348,-0.0396,-0.0419,-0.044,-0.0433,-0.0422,-0.0404,-0.0364,-0.0335,-0.0261,-0.0258,-0.0227,-0.0229,-0.0226,-0.0267,-0.0247,-0.0234,-0.0233,-0.0233,-0.0239,-0.0239,-0.0239,-0.0239,0,-0.0213,-0.0233,-0.0261,-0.0307,-0.035,-0.0383,-0.0415,-0.041,-0.0413,-0.0418,-0.0362,-0.0335,-0.0279,-0.0242,-0.02,-0.0193,-0.0236,-0.0218,-0.0221,-0.0259,-0.0242,-0.023,-0.023,-0.0236,-0.0236,-0.0237,-0.0237,0,-0.0215,-0.0232,-0.0259,-0.03,-0.0343,-0.0361,-0.0382,-0.0371,-0.0367,-0.0347,-0.0334,-0.0287,-0.0267,-0.0224,-0.0201,-0.0171,-0.0189,-0.0205,-0.0209,-0.0212,-0.0217,-0.0191,-0.0165,0,0,0,0,0,-0.0215,-0.0224,-0.0252,-0.0289,-0.032,-0.0347,-0.037,-0.0378,-0.0382,-0.0327,-0.0327,-0.0273,-0.0228,-0.0212,-0.0175,-0.0216,-0.0202,-0.0179,-0.0227,-0.0221,-0.0224,-0.0234,0,0,0,0,0,0,-0.0217,-0.0234,-0.0239,-0.0262,-0.0286,-0.0316,-0.033,-0.0335,-0.0299,-0.03,-0.0255,-0.0272,-0.021,-0.0226,-0.0169,-0.0169,-0.0201,-0.0164,-0.0164,-0.0219,-0.0222,-0.0225,-0.0236,0,0,0,0,0]}]]